[[{"header":{"parameterUnit":"m.s-1","parameterCategory":1,"la1":30.2991,"la2":30.254,"lo1":-89.0895,"lo2":-89.0444,"dy":0.0017,"dx":0.0017,"nx":28,"ny":28,"refTime":"2024-09-01T03:00:00:Z","depth":0,"parameterNumber":2,"parameterNumberName":"U-component_of_WINDS"},"data":[0,0,0,0,0,0,0,0,0,0,0,0,0,0,0,0,0,0,0,0,0,0,0,0,0,0,0,0,0,0,0,0,0,0,0,0,0,0,0,0,0,0,0,0,0,0,0,0,0,0,0,0,0,0,0,0,0,0,-3.0116,-3.0116,0,-3.011,-3.011,-3.011,-2.9965,-2.9961,-2.9957,-2.9954,-2.9951,-2.9954,-2.9957,0,0,0,0,0,0,0,0,0,0,0,0,0,-3.0002,-3.0004,-3.0116,-3.0116,-3.0116,-3.011,-3.011,-3.011,-2.9966,-2.9961,-2.9956,-2.9952,-2.995,-2.9954,-2.9958,0,0,0,0,0,0,0,0,0,0,0,0,0,-3.0029,-3.0005,-3.0116,-3.0043,-3.0036,-3.011,-3.011,-3.011,-2.9967,-2.9961,-2.9955,-2.995,-2.9948,-2.9953,-2.9958,-3.0103,0,0,-2.9974,-2.9976,0,0,0,0,0,0,0,0,-3.0028,-3.0034,-3.0053,-3.0048,-3.0041,-3.0032,-3.0069,-3.0108,-2.9968,-2.9993,-2.9954,-2.9947,-2.9983,-2.9985,-2.9996,-3.0103,-3.0103,-2.9974,-2.9978,-2.998,-2.9981,0,0,0,0,0,0,0,-3.0026,-3.0033,-3.0113,-3.0054,-3.0046,-3.0011,-3.0008,-3.0076,-3.002,-2.999,-2.998,-2.9981,-2.9978,-2.9991,-2.9995,-3.0102,-2.9974,-2.9979,-2.9982,-2.9984,-3.0326,-3.0332,0,0,0,0,0,0,-3.0034,-3.0033,-3.0114,-3.0113,-3.002,-3.0017,-3.0015,-3.0041,-3.0018,-3.001,-2.9986,-2.9974,-2.9985,-2.9989,-2.9994,-3.0161,-2.998,-2.9985,-2.9987,-3.032,-3.0328,-3.0334,0,0,0,0,0,0,-3.0032,-3.0043,-3.0114,-3.007,-3.0076,-3.0025,-3.0056,-3.0044,-3.0057,-3.0015,-3.0004,-3.001,-2.9981,-2.9987,-3.0076,-3.0159,-2.9987,-2.9992,-3.0313,-3.0322,-3.0331,-3.0496,0,0,0,0,0,0,-3.003,-3.0043,-3.0097,-3.0072,-3.0079,-3.0196,-3.0061,-3.0048,-3.0066,-3.0051,-3.0035,-3.0027,-2.9977,-3.007,-3.0082,-3.0163,-2.9996,-3.0305,-3.0317,-3.0328,-3.0483,-3.051,-3.0533,0,0,0,0,0,-3.0026,-3.0145,-3.0101,-3.0111,-3.0146,-3.0201,-3.0205,-3.0145,-3.0073,-3.0127,-3.01,-3.0027,-3.0148,-3.008,-3.0092,-3.0176,-3.03,-3.0314,-3.0327,-3.0472,-3.0505,-3.0532,0,0,0,0,0,0,-3.0182,-3.014,-3.0091,-3.0205,-3.0208,-3.0177,-3.0243,-3.0182,-3.0206,-3.0191,-3.0116,-3.0114,-3.0215,-3.0204,-3.0129,-3.0314,-3.0211,-3.0228,-3.0317,-3.0348,-3.0372,-3.0372,-3.0,0,0,0,0,0,-3.0229,-3.0277,-3.0238,-3.0343,-3.0347,-3.0295,-3.0317,-3.0271,-3.0271,-3.0271,-3.0251,-3.0254,-3.0293,-3.032,-3.0353,-3.0481,-3.0475,-3.0545,-3.057,-3.059,-3.0605,-3.0671,-3.0701,-3.0378,-3.0378,-3.0378,0,0,-3.0328,-3.0311,-3.0346,-3.0374,-3.037,-3.0422,-3.0297,-3.0357,-3.0395,-3.0281,-3.0363,-3.0349,-3.0348,-3.0457,-3.0504,-3.0451,-3.0693,-3.0607,-3.0624,-3.0628,-3.0688,-3.0719,-3.0746,-3.0388,-3.0386,-3.0384,0,0,-3.0533,-3.0526,-3.0611,-3.061,-3.0606,-3.0571,-3.0592,-3.057,-3.0556,-3.0638,-3.0553,-3.0597,-3.0665,-3.0667,-3.0677,-3.0884,-3.0817,-3.0897,-3.1026,-3.1091,-3.1116,-3.1139,-3.1211,-3.1239,-3.0912,-3.0913,-3.0913,0,-3.0657,-3.073,-3.0663,-3.0729,-3.0743,-3.0641,-3.0727,-3.073,-3.0738,-3.075,-3.0691,-3.0774,-3.0766,-3.0874,-3.0924,-3.0936,-3.0957,-3.0898,-3.1118,-3.114,-3.1159,-3.1228,-3.1256,-3.0922,-3.0921,-3.092,-3.0919,0,-3.0881,-3.0934,-3.1004,-3.1012,-3.1035,-3.1111,-3.1055,-3.1086,-3.1038,-3.1009,-3.1093,-3.1081,-3.1109,-3.1131,-3.1085,-3.1233,-3.12,-3.1131,-3.1026,-3.1201,-3.1264,-3.129,-3.0936,-3.0933,-3.093,-3.0927,0,0,-3.1185,-3.1155,-3.1182,-3.1184,-3.1172,-3.1211,-3.1283,-3.1309,-3.1337,-3.1346,-3.1403,-3.1463,-3.1399,-3.1411,-3.1364,-3.1422,-3.1585,-3.1345,-3.1344,-3.1389,-3.1745,-3.1797,-3.1828,-3.1541,-3.1546,-3.1549,-3.1745,0,-3.1383,-3.1501,-3.1443,-3.1568,-3.1616,-3.152,-3.1581,-3.1581,-3.1557,-3.1593,-3.1566,-3.1609,-3.1521,-3.1528,-3.158,-3.1554,-3.1655,-3.1539,-3.1593,-3.1596,-3.1596,-3.1861,-3.1916,-3.2101,-3.177,-3.1774,-3.1777,0,-3.1629,-3.1647,-3.1778,-3.1756,-3.1774,-3.183,-3.1849,-3.1886,-3.1884,-3.1862,-3.1875,-3.1815,-3.1883,-3.1779,-3.1872,-3.1794,-3.1813,-3.1804,-3.1809,-3.1811,-3.1697,-3.187,-3.2159,-3.2187,-3.1815,-3.1812,-3.1809,0,-3.1836,-3.1893,-3.1978,-3.1983,-3.1961,-3.2002,-3.1995,-3.1987,-3.2007,-3.2024,-3.2036,-3.2062,-3.2076,-3.2097,-3.2046,-3.1975,-3.2146,-3.2038,-3.2129,-3.2131,-3.2168,-3.2167,-3.2464,-3.2183,-3.2183,-3.2182,-3.2182,0,-3.2063,-3.2146,-3.207,-3.2123,-3.2213,-3.2145,-3.2237,-3.2219,-3.2213,-3.226,-3.218,-3.2226,-3.2155,-3.2195,-3.2155,-3.2238,-3.2245,-3.2229,-3.2217,-3.2236,-3.2238,-3.2246,-3.2232,-3.2189,-3.2188,-3.2186,-3.2185,0,-3.2309,-3.2261,-3.2347,-3.2319,-3.2313,-3.2381,-3.2356,-3.2404,-3.2373,-3.2434,-3.2445,-3.2397,-3.2439,-3.239,-3.2429,-3.2402,-3.2513,-3.2483,-3.2514,-3.2505,-3.2598,-3.259,-3.2911,-3.2949,-3.2645,-3.2648,-3.2651,0,-3.2456,-3.2517,-3.2495,-3.252,-3.2517,-3.256,-3.2578,-3.2515,-3.2538,-3.254,-3.2587,-3.2622,-3.2647,-3.2719,-3.2688,-3.2717,-3.2686,-3.2797,-3.269,-3.2706,-3.2687,-3.2683,-3.2689,-3.2818,-3.2822,-3.2825,-3.2828,0,-3.2722,-3.2695,-3.2725,-3.2748,-3.2773,-3.2788,-3.2796,-3.2822,-3.2755,-3.2786,-3.2827,-3.2847,-3.2885,-3.2921,-3.2941,-3.2934,-3.287,-3.2861,-3.2884,-3.2903,-3.2918,-3.291,-3.2572,-3.2854,-3.2851,-3.285,-3.2848,-3.2847,-3.2921,-3.2971,-3.2963,-3.2999,-3.2999,-3.3009,-3.3051,-3.3026,-3.3059,-3.3085,-3.3045,-3.3098,-3.3093,-3.3113,-3.3114,-3.3154,-3.3106,-3.3139,-3.3147,-3.3156,-3.317,-3.2912,-3.3157,-3.3156,-3.3156,-3.3155,-3.3154,0,-3.3182,-3.3172,-3.3206,-3.322,-3.3249,-3.3185,-3.3192,-3.322,-3.3267,-3.3268,-3.3293,-3.3341,-3.3375,-3.3347,-3.3376,-3.3413,-3.3385,-3.3423,-3.3419,-3.3418,-3.3211,-3.3188,-3.3445,-3.3445,-3.3445,-3.3445,-3.3445,-3.3445,-3.3321,-3.3401,-3.3374,-3.3454,-3.3442,-3.3492,-3.3501,-3.351,-3.351,-3.3566,-3.3594,-3.3575,-3.3565,-3.3592,-3.362,-3.3611,-3.3625,-3.3674,-3.3655,-3.3461,-3.3433,-3.3405,-3.3383,-3.3678,-3.3678,-3.3858,-3.386,-3.3861]},{"header":{"parameterUnit":"m.s-1","parameterCategory":1,"la1":30.2991,"la2":30.254,"lo1":-89.0895,"lo2":-89.0444,"dy":0.0017,"dx":0.0017,"nx":28,"ny":28,"refTime":"2024-09-01T03:00:00:Z","depth":0,"parameterNumber":3,"parameterNumberName":"V-component_of_WINDS"},"data":[0,0,0,0,0,0,0,0,0,0,0,0,0,0,0,0,0,0,0,0,0,0,0,0,0,0,0,0,0,0,0,0,0,0,0,0,0,0,0,0,0,0,0,0,0,0,0,0,0,0,0,0,0,0,0,0,0,0,-0.4401,-0.4402,0,-0.4459,-0.446,-0.446,-0.4516,-0.4517,-0.4517,-0.4518,-0.4575,-0.4576,-0.4577,0,0,0,0,0,0,0,0,0,0,0,0,0,-0.4337,-0.4338,-0.4401,-0.4402,-0.4403,-0.4459,-0.446,-0.446,-0.4516,-0.4517,-0.4518,-0.4518,-0.4575,-0.4576,-0.4577,0,0,0,0,0,0,0,0,0,0,0,0,0,-0.4377,-0.4338,-0.4401,-0.4437,-0.4441,-0.4459,-0.446,-0.4461,-0.4516,-0.4517,-0.4518,-0.4519,-0.4575,-0.4576,-0.4577,-0.4563,0,0,-0.4581,-0.4582,0,0,0,0,0,0,0,0,-0.4374,-0.4379,-0.4431,-0.4435,-0.4439,-0.4481,-0.4458,-0.4495,-0.4515,-0.4487,-0.4518,-0.4519,-0.4543,-0.4547,-0.4555,-0.4566,-0.4568,-0.4581,-0.4582,-0.4582,-0.4583,0,0,0,0,0,0,0,-0.4372,-0.4377,-0.4424,-0.4432,-0.4437,-0.445,-0.4457,-0.4465,-0.4508,-0.449,-0.4494,-0.45,-0.4545,-0.4554,-0.4557,-0.4569,-0.4581,-0.4582,-0.4583,-0.4583,-0.457,-0.4569,0,0,0,0,0,0,-0.4364,-0.4374,-0.4422,-0.4426,-0.4409,-0.445,-0.4458,-0.4467,-0.4508,-0.4516,-0.4499,-0.4502,-0.4551,-0.4556,-0.4559,-0.4545,-0.4582,-0.4584,-0.4584,-0.4571,-0.4569,-0.4568,0,0,0,0,0,0,-0.4362,-0.4367,-0.442,-0.4401,-0.4409,-0.445,-0.446,-0.4467,-0.4476,-0.4515,-0.4523,-0.45,-0.4552,-0.4557,-0.4562,-0.4548,-0.4584,-0.4585,-0.4572,-0.457,-0.4569,-0.4516,0,0,0,0,0,0,-0.436,-0.4366,-0.4362,-0.4401,-0.441,-0.4422,-0.4459,-0.4468,-0.4478,-0.4483,-0.4518,-0.4525,-0.4554,-0.4559,-0.4563,-0.455,-0.4586,-0.4574,-0.4571,-0.4569,-0.4519,-0.4513,-0.4507,0,0,0,0,0,-0.4357,-0.4345,-0.4362,-0.4367,-0.4406,-0.4421,-0.4426,-0.4459,-0.4477,-0.4473,-0.4498,-0.4524,-0.4549,-0.4559,-0.4564,-0.4551,-0.4575,-0.4572,-0.457,-0.4522,-0.4514,-0.4507,0,0,0,0,0,0,-0.4304,-0.4351,-0.437,-0.437,-0.4391,-0.4431,-0.4426,-0.445,-0.4467,-0.447,-0.451,-0.4518,-0.4517,-0.4535,-0.4546,-0.4539,-0.4565,-0.4563,-0.4527,-0.452,-0.4514,-0.451,-0.4587,0,0,0,0,0,-0.4292,-0.4302,-0.4342,-0.4338,-0.4348,-0.4385,-0.4393,-0.4417,-0.444,-0.4449,-0.4475,-0.4496,-0.4508,-0.4515,-0.4529,-0.4522,-0.453,-0.4515,-0.4509,-0.4504,-0.4502,-0.4498,-0.4492,-0.456,-0.456,-0.456,0,0,-0.4268,-0.4295,-0.4298,-0.4328,-0.4347,-0.4355,-0.4392,-0.4399,-0.4405,-0.445,-0.4455,-0.4475,-0.4501,-0.4499,-0.4499,-0.4513,-0.4485,-0.4501,-0.4497,-0.4497,-0.4495,-0.4488,-0.4483,-0.4558,-0.4558,-0.4559,0,0,-0.4228,-0.4249,-0.4248,-0.4266,-0.4295,-0.4319,-0.4319,-0.4354,-0.4369,-0.4375,-0.4408,-0.4415,-0.4436,-0.4453,-0.4464,-0.4428,-0.4453,-0.4432,-0.44,-0.4396,-0.4391,-0.4386,-0.4372,-0.4367,-0.4429,-0.4429,-0.4429,0,-0.4194,-0.4208,-0.4244,-0.4249,-0.426,-0.4301,-0.4299,-0.4315,-0.4346,-0.4352,-0.4368,-0.4394,-0.4415,-0.4416,-0.4407,-0.4416,-0.4415,-0.4428,-0.4389,-0.4384,-0.4381,-0.4368,-0.4362,-0.4427,-0.4427,-0.4427,-0.4427,0,-0.4164,-0.4173,-0.4168,-0.4197,-0.4208,-0.4209,-0.4245,-0.4251,-0.4273,-0.4296,-0.43,-0.4326,-0.4345,-0.4348,-0.437,-0.4352,-0.436,-0.4381,-0.4408,-0.4371,-0.4359,-0.4354,-0.4422,-0.4423,-0.4424,-0.4425,0,0,-0.4092,-0.414,-0.4138,-0.4151,-0.4185,-0.4192,-0.4194,-0.4213,-0.4217,-0.4237,-0.4239,-0.4255,-0.4275,-0.4288,-0.4312,-0.4308,-0.4276,-0.433,-0.4331,-0.4318,-0.4257,-0.424,-0.4233,-0.4293,-0.4292,-0.4291,-0.4254,0,-0.4057,-0.4064,-0.4096,-0.4094,-0.4102,-0.414,-0.4142,-0.4162,-0.4183,-0.4192,-0.4215,-0.4225,-0.4251,-0.4259,-0.4257,-0.428,-0.4264,-0.4284,-0.4294,-0.4294,-0.4285,-0.4228,-0.421,-0.4174,-0.425,-0.4249,-0.4249,0,-0.4017,-0.4034,-0.4032,-0.4064,-0.4069,-0.407,-0.4089,-0.4098,-0.4121,-0.4136,-0.4149,-0.4176,-0.418,-0.4205,-0.4209,-0.4222,-0.4228,-0.424,-0.4239,-0.4241,-0.4269,-0.4227,-0.4163,-0.4157,-0.4242,-0.4243,-0.4243,0,-0.3963,-0.3985,-0.3987,-0.3997,-0.4035,-0.4035,-0.4051,-0.4075,-0.4084,-0.41,-0.4106,-0.4122,-0.4131,-0.4142,-0.4172,-0.4188,-0.4172,-0.4201,-0.4184,-0.4183,-0.4179,-0.4178,-0.4114,-0.4184,-0.4184,-0.4184,-0.4184,0,-0.3919,-0.3916,-0.3963,-0.3964,-0.3961,-0.3997,-0.3994,-0.4013,-0.4034,-0.4038,-0.4073,-0.4076,-0.4116,-0.4123,-0.4146,-0.4145,-0.4149,-0.4161,-0.4167,-0.4157,-0.4156,-0.4161,-0.4164,-0.4182,-0.4183,-0.4183,-0.4183,0,-0.3859,-0.389,-0.3894,-0.393,-0.3938,-0.3935,-0.3965,-0.3966,-0.3989,-0.3994,-0.3997,-0.4032,-0.4042,-0.4073,-0.4092,-0.4107,-0.4099,-0.4111,-0.4091,-0.4095,-0.4076,-0.4077,-0.4012,-0.4005,-0.408,-0.4079,-0.4078,0,-0.3829,-0.3827,-0.3862,-0.3868,-0.3882,-0.3891,-0.39,-0.3935,-0.3943,-0.3968,-0.3966,-0.3979,-0.3992,-0.4006,-0.4032,-0.4046,-0.4058,-0.4034,-0.406,-0.405,-0.4056,-0.4055,-0.4055,-0.4028,-0.4027,-0.4027,-0.4026,0,-0.3771,-0.3787,-0.3799,-0.3815,-0.3825,-0.384,-0.3856,-0.3859,-0.3898,-0.3904,-0.3915,-0.3925,-0.3943,-0.3955,-0.3972,-0.3988,-0.4013,-0.4018,-0.4014,-0.4004,-0.3992,-0.3997,-0.4075,-0.4019,-0.402,-0.402,-0.4021,-0.4021,-0.3725,-0.3725,-0.3749,-0.3761,-0.3777,-0.3791,-0.3794,-0.3817,-0.3827,-0.3844,-0.3864,-0.3872,-0.3894,-0.392,-0.3934,-0.394,-0.3953,-0.3949,-0.3948,-0.3946,-0.394,-0.3992,-0.3943,-0.3944,-0.3944,-0.3944,-0.3944,0,-0.3668,-0.3685,-0.3696,-0.3718,-0.3726,-0.375,-0.3769,-0.3774,-0.3781,-0.38,-0.3811,-0.3823,-0.3834,-0.3861,-0.3875,-0.3874,-0.3886,-0.3877,-0.3877,-0.3879,-0.3928,-0.3929,-0.3867,-0.3867,-0.3867,-0.3867,-0.3867,-0.3867,-0.364,-0.364,-0.3658,-0.3667,-0.3684,-0.3693,-0.3701,-0.3714,-0.3729,-0.3741,-0.3751,-0.3768,-0.379,-0.3805,-0.3816,-0.3823,-0.3826,-0.3813,-0.3824,-0.3869,-0.3876,-0.3883,-0.3884,-0.3813,-0.3813,-0.3774,-0.3774,-0.3774]}]]